Regional Weather Roundup
Issued by NWS Kansas City/Pleasant Hill, MO

Home | Current Version | Previous Version | Graphics & Text | Print | Product List | Glossary Off
Versions: 1 2 3 4 5 6 7 8 9 10 11 12 13 14 15 16 17 18 19 20 21 22 23 24 25 26 27 28 29 30 31 32 33 34 35 36 37 38 39 40 41 42 43 44 45 46 47 48 49 50

000
ASUS43 KEAX 050604
RWREAX

WEATHER ROUNDUP FOR EASTERN KANSAS AND NORTHWEST MISSOURI
NATIONAL WEATHER SERVICE KANSAS CITY/PLEASANT HILL MO
100 AM CDT SUN JUL 05 2015

KSZ040-057-103>105-MOZ028-029-037-043-050700-
...KANSAS CITY METROPOLITAN AREA...

CITY           SKY/WX    TMP DP  RH WIND       PRES   REMARKS
K.C. INTL      CLEAR     68  63  84 SE8       30.01R
6HR MIN TEMP:  68; 6HR MAX TEMP:  79;

K.C. DOWNTOWN  CLEAR     75  64  68 SE7       30.00R
6HR MIN TEMP:  75; 6HR MAX TEMP:  82;

LEES SUMMIT    CLEAR     71  64  78 SE5       30.02R
6HR MIN TEMP:  71; 6HR MAX TEMP:  80;

OLATHE - IXD   CLEAR     69  65  86 SE5       30.02R
6HR MIN TEMP:  69; 6HR MAX TEMP:  80;

OLATHE - OJC   CLEAR     69  64  84 SE3       30.01R HAZE
6HR MIN TEMP:  68; 6HR MAX TEMP:  78;

LAWRENCE       CLEAR     67  64  90 E6        30.00R FOG

$$

MOZ001>008-011>017-020>025-030>033-038>040-044>046-053-054-050700-
...NORTHERN AND CENTRAL MISSOURI...

CITY           SKY/WX    TMP DP  RH WIND       PRES   REMARKS
ST. JOSEPH     CLEAR     70  64  81 CALM      30.00R
6HR MIN TEMP:  69; 6HR MAX TEMP:  81;

MOSBY          CLEAR     66  66 100 CALM      30.01S FOG
HARRISONVILLE  CLEAR     68  66  94 CALM      30.04R FOG
WHITEMAN AFB   CLEAR     69  65  85 SE2       30.01R
6HR MIN TEMP:  69; 6HR MAX TEMP:  80;

CLINTON        CLEAR     72  68  88 CALM      30.02R FOG
SEDALIA        CLEAR     70  65  84 SE7       30.03R
6HR MIN TEMP:  70; 6HR MAX TEMP:  80;

WARSAW         FAIR      68  66  94 E5        30.02S
CHILLICOTHE      N/A     66  64  93 CALM      30.03R
6HR MIN TEMP:  66; 6HR MAX TEMP:  81;

KIRKSVILLE     RAIN      63  60  90 CALM      30.04R
6HR MIN TEMP:  62; 6HR MAX TEMP:  79; 6HR PCP: TRACE;


$$

MOZ041-047>049-056>058-063>065-088>090-097-050700-
...EASTERN AND SOUTHERN MISSOURI...

CITY           SKY/WX    TMP DP  RH WIND       PRES   REMARKS
ST. LOUIS INTL CLEAR     70  62  76 SE5       30.05R HAZE
6HR MIN TEMP:  70; 6HR MAX TEMP:  81;

SPIRIT OF STL  CLEAR     67  64  90 CALM      30.03R FOG
COLUMBIA       CLEAR     69  65  86 SE7       30.04R
JEFFERSON CITY PTCLDY    69  65  86 SE5       30.02S
MEXICO         CLEAR    N/A N/A N/A SE5       30.03S
ROLLA          PTCLDY    69  65  86 SE6       30.04R
LEBANON        CLEAR     70  66  88 CALM      30.05S
OSAGE BEACH    PTCLDY    70  64  83 E3        30.03R
SPRINGFIELD    PTCLDY    73  68  84 S7        30.02S
BRANSON          N/A     70  68  94 CALM      30.04S
JOPLIN         PTCLDY    73  68  84 SE6       30.00S
WEST PLAINS    MOCLDY    71  68  90 SE3       30.07R
MALDEN           N/A     72  70  94 CALM      30.04  FOG

$$

IAZ060-094-KSZ022-034>040-054-083-096-NEZ052-066-093-050700-
...KANSAS...SOUTHEAST NEBRASKA AND IOWA...

CITY           SKY/WX    TMP DP  RH WIND       PRES   REMARKS
TOPEKA         CLEAR     70  65  84 E5        29.99R
6HR MIN TEMP:  70; 6HR MAX TEMP:  82;

MANHATTAN      PTCLDY    73  66  78 VRB3      29.96R
EMPORIA        CLEAR     71  66  84 SE12      29.98S
CHANUTE        CLEAR     72  68  87 E6        29.99R
WICHITA        CLEAR     77  65  66 SE8       29.96R
OMAHA          CLEAR     70  62  76 S9        29.96R
LINCOLN        PTCLDY    72  64  76 S13       29.95S
FALLS CITY     CLEAR     68  63  84 SE8       29.98R
LAMONI         CLEAR     67  62  84 S7        30.02R
DES MOINES     CLEAR     68  60  75 S6        30.00R

$$



USA.gov is the U.S. government's official web portal to all federal, state and local government web resources and services.